Hourly Data Report for September 19, 2017

All times are specified in Local Standard Time (LST). Add 1 hour to adjust for Daylight Saving Time where and when it is observed.

BAKER LAKE A
NUNAVUT

64°17'56.000" N
96°04'40.000" W
18.60 m
2300503
71926
YBK

Download Data

Hourly Data (September 2017)
Hourly Data Report for September 19, 2017
Temp Definition
°C
Dew Point Temp Definition
°C
Rel Hum Definition
%
Wind Dir Definition
10's deg

Wind Spd Definition
km/h
Visibility Definition
km
Stn Press Definition
kPa
Hmdx Definition


Wind Chill Definition


Weather Definition


TIME
00:00 Legend Double Dagger 3.5 2.9 96 21 8 24.1 101.22     Mostly Cloudy
01:00 Legend Double Dagger 4.1 3.3 94 23 13 24.1 101.23     LegendNANA
02:00 Legend Double Dagger 4.2 3.1 92 24 10 24.1 101.26     LegendNANA
03:00 Legend Double Dagger 4.6 3.2 91 24 13 32.2 101.27     Mostly Cloudy
04:00 Legend Double Dagger 4.2 3.0 92 23 10 24.1 101.30     LegendNANA
05:00 Legend Double Dagger 3.1 2.4 95 36 1 32.2 101.32     LegendNANA
06:00 Legend Double Dagger 1.5 1.1 97 27 3 32.2 101.34     Mostly Cloudy
07:00 Legend Double Dagger 1.9 1.5 98 22 7 32.2 101.37     LegendNANA
08:00 Legend Double Dagger 3.4 3.1 98 24 15 4.8 101.37     LegendNANA
09:00 Legend Double Dagger 4.8 3.9 93 23 13 3.2 101.43     Fog
10:00 Legend Double Dagger 7.2 4.2 81 17 8 32.2 101.48     LegendNANA
11:00 Legend Double Dagger 7.0 4.4 83 8 6 32.2 101.50     LegendNANA
12:00 Legend Double Dagger 8.7 4.5 75 12 13 32.2 101.51     Mostly Cloudy
13:00 Legend Double Dagger 9.2 3.9 69 11 15 32.2 101.54     LegendNANA
14:00 Legend Double Dagger 8.9 4.0 71 11 14 32.2 101.56     LegendNANA
15:00 Legend Double Dagger 8.9 4.2 72 11 16 32.2 101.59     Mostly Cloudy
16:00 Legend Double Dagger 8.5 4.2 74 11 16 32.2 101.60     LegendNANA
17:00 Legend Double Dagger 8.3 4.5 77 11 15 32.2 101.62     LegendNANA
18:00 Legend Double Dagger 7.6 4.5 80 11 13 32.2 101.65     Mostly Cloudy
19:00 Legend Double Dagger 6.9 4.5 85 12 13 32.2 101.71     LegendNANA
20:00 Legend Double Dagger 3.5 2.1 90 36 6 24.1 101.74     LegendNANA
21:00 Legend Double Dagger 4.4 3.0 90 1 4 24.1 101.79     Mainly Clear
22:00 Legend Double Dagger 3.9 2.4 90 36 3 24.1 101.83     LegendNANA
23:00 Legend Double Dagger 3.7 3.1 96 36 2 24.1 101.87     LegendNANA

Notes on Data Quality.

Legend

  • E = Estimated
  • M = Missing
  • NA = Not Available
  • ‡ = Partner data that is not subject to review by the National Climate Archives
Date modified: